[[{"header":{"parameterUnit":"m.s-1","parameterCategory":1,"la1":30.2991,"la2":30.254,"lo1":-89.0895,"lo2":-89.0444,"dy":0.0017,"dx":0.0017,"nx":28,"ny":28,"refTime":"2024-05-10T09:00:00:Z","depth":0,"parameterNumber":2,"parameterNumberName":"U-component_of_WINDS"},"data":[0,0,0,0,0,0,0,0,0,0,0,0,0,0,0,0,0,0,0,0,0,0,0,0,0,0,0,0,0,0,0,0,0,0,0,0,0,0,0,0,0,0,0,0,0,0,0,0,0,0,0,0,0,0,0,0,0,0,-0.1128,-0.1126,0,-0.0955,-0.0953,-0.0951,-0.1012,-0.1016,-0.102,-0.1023,-0.0828,-0.082,-0.0811,0,0,0,0,0,0,0,0,0,0,0,0,0,-0.1495,-0.1488,-0.1128,-0.1126,-0.1124,-0.0955,-0.0953,-0.095,-0.1011,-0.1016,-0.1021,-0.1025,-0.0831,-0.0821,-0.081,0,0,0,0,0,0,0,0,0,0,0,0,0,-0.133,-0.1486,-0.1129,-0.1135,-0.1133,-0.0956,-0.0953,-0.095,-0.101,-0.1016,-0.1022,-0.1027,-0.0835,-0.0822,-0.0809,-0.061,0,0,-0.0768,-0.0762,0,0,0,0,0,0,0,0,-0.1339,-0.1316,-0.1136,-0.1134,-0.1132,-0.1011,-0.1011,-0.0835,-0.1009,-0.1056,-0.1023,-0.103,-0.0883,-0.0866,-0.082,-0.0601,-0.0592,-0.0767,-0.0759,-0.0753,-0.075,0,0,0,0,0,0,0,-0.135,-0.1324,-0.1059,-0.1133,-0.1131,-0.114,-0.1123,-0.0978,-0.0938,-0.1053,-0.1057,-0.1036,-0.0883,-0.0833,-0.0816,-0.0589,-0.0767,-0.0756,-0.0747,-0.0742,-0.0193,-0.0187,0,0,0,0,0,0,-0.1365,-0.1333,-0.1065,-0.1054,-0.1253,-0.1129,-0.111,-0.1044,-0.094,-0.0931,-0.1031,-0.104,-0.0853,-0.0832,-0.081,-0.0567,-0.0753,-0.0741,-0.0733,-0.02,-0.0192,-0.0185,0,0,0,0,0,0,-0.1373,-0.1341,-0.1072,-0.1195,-0.1161,-0.1116,-0.1042,-0.1037,-0.0988,-0.0925,-0.0916,-0.0989,-0.0857,-0.0828,-0.0659,-0.0561,-0.0735,-0.0723,-0.0208,-0.0197,-0.0188,-0.0083,0,0,0,0,0,0,-0.1383,-0.1343,-0.1271,-0.1193,-0.1155,-0.0929,-0.1036,-0.103,-0.0967,-0.0976,-0.0882,-0.0872,-0.0859,-0.0679,-0.0646,-0.0546,-0.0713,-0.0216,-0.0203,-0.0191,-0.0095,-0.007,-0.005,0,0,0,0,0,-0.1396,-0.1245,-0.1267,-0.1234,-0.1065,-0.0924,-0.0901,-0.0894,-0.0959,-0.0883,-0.0842,-0.0875,-0.0579,-0.0661,-0.0625,-0.0519,-0.0222,-0.0207,-0.0192,-0.0105,-0.0075,-0.005,0,0,0,0,0,0,-0.1307,-0.1235,-0.1259,-0.1079,-0.1008,-0.0935,-0.0839,-0.0864,-0.0768,-0.078,-0.077,-0.0748,-0.0574,-0.053,-0.0624,-0.032,-0.0409,-0.0386,-0.0355,-0.0326,-0.0304,-0.0316,-0.0702,0,0,0,0,0,-0.1268,-0.1165,-0.1106,-0.0952,-0.0916,-0.0884,-0.0822,-0.0824,-0.0747,-0.0715,-0.0662,-0.0581,-0.047,-0.0396,-0.029,-0.009,-0.0067,0.0001,0.0024,0.0042,0.0063,0.0176,0.0209,-0.0136,-0.0136,-0.0136,0,0,-0.1183,-0.1131,-0.1066,-0.0933,-0.0878,-0.0766,-0.0857,-0.0736,-0.0651,-0.0694,-0.0533,-0.0491,-0.0399,-0.0213,-0.0129,-0.0171,0.0162,0.0061,0.0075,0.0086,0.0195,0.0228,0.0257,-0.0126,-0.0127,-0.0129,0,0,-0.0972,-0.0924,-0.0791,-0.0735,-0.0652,-0.0631,-0.0599,-0.0522,-0.0497,-0.0336,-0.0366,-0.0262,-0.0071,-0.0004,0.0055,0.0292,0.0268,0.0327,0.0446,0.0557,0.0584,0.0608,0.0697,0.0728,0.0347,0.0347,0.0347,0,-0.0875,-0.0714,-0.0717,-0.0593,-0.0532,-0.0573,-0.0433,-0.0377,-0.0261,-0.0215,-0.0266,-0.0027,0.0032,0.0235,0.0292,0.034,0.0382,0.0318,0.0579,0.0603,0.0626,0.0711,0.0744,0.0354,0.0353,0.0353,0.0352,0,-0.0597,-0.0484,-0.0385,-0.0279,-0.0206,-0.0075,-0.0053,0.0022,0.0014,0.0042,0.021,0.0278,0.0398,0.0446,0.0442,0.065,0.0621,0.0574,0.0486,0.0666,0.0746,0.0778,0.0364,0.0362,0.0359,0.0358,0,0,-0.0322,-0.0222,-0.0184,-0.0136,-0.0047,0.0043,0.0175,0.0286,0.0353,0.0434,0.0549,0.0711,0.0668,0.0736,0.0739,0.0835,0.1024,0.0778,0.078,0.0825,0.1263,0.13,0.1337,0.1006,0.1012,0.1017,0.1257,0,-0.0101,0.0122,0.0124,0.0333,0.044,0.0403,0.0519,0.0589,0.0619,0.0719,0.0754,0.087,0.0803,0.0844,0.0937,0.0981,0.1113,0.0963,0.112,0.1125,0.1101,0.1378,0.1418,0.164,0.1288,0.1293,0.1297,0,0.0187,0.0272,0.049,0.0564,0.0609,0.0712,0.0816,0.091,0.0991,0.1006,0.1081,0.107,0.1211,0.1114,0.1311,0.121,0.1274,0.1306,0.1314,0.1333,0.1224,0.1409,0.1711,0.1746,0.1345,0.1341,0.1338,0,0.0369,0.0539,0.0692,0.0735,0.0824,0.0898,0.094,0.1014,0.1082,0.1175,0.1221,0.1331,0.1392,0.1481,0.1502,0.1429,0.1702,0.1606,0.1724,0.1724,0.1786,0.1783,0.2107,0.1821,0.182,0.182,0.1819,0,0.0618,0.0755,0.0775,0.087,0.1024,0.1026,0.118,0.1217,0.1283,0.1389,0.1366,0.1467,0.1487,0.1595,0.1613,0.1776,0.1804,0.1825,0.1829,0.1829,0.1827,0.1875,0.1861,0.1829,0.1827,0.1825,0.1823,0,0.085,0.0868,0.1033,0.1103,0.1124,0.1234,0.1297,0.1391,0.1417,0.1552,0.1584,0.1628,0.1754,0.1782,0.1933,0.1945,0.214,0.2128,0.2112,0.2112,0.223,0.222,0.26,0.2652,0.2327,0.233,0.2333,0,0.1009,0.1112,0.1191,0.1257,0.1301,0.1409,0.1477,0.1484,0.1558,0.1658,0.1742,0.1863,0.196,0.2164,0.2214,0.233,0.2323,0.2447,0.2341,0.2338,0.233,0.2325,0.2338,0.247,0.2473,0.2476,0.2478,0,0.1291,0.1295,0.139,0.149,0.157,0.1651,0.1728,0.1786,0.1805,0.1889,0.2014,0.2089,0.2241,0.2365,0.2481,0.2531,0.2512,0.251,0.2545,0.2548,0.2536,0.2549,0.2172,0.2503,0.25,0.2499,0.2497,0.2496,0.1494,0.1585,0.1655,0.1763,0.182,0.1893,0.1985,0.2021,0.2123,0.2243,0.2243,0.2381,0.2464,0.2617,0.2674,0.2786,0.2749,0.2797,0.2811,0.2824,0.2836,0.2514,0.2807,0.2807,0.2806,0.2805,0.2805,0,0.1778,0.182,0.1919,0.2025,0.2113,0.2077,0.2162,0.2239,0.2358,0.2433,0.2529,0.2675,0.2795,0.2852,0.2973,0.3052,0.3046,0.3084,0.3081,0.3094,0.2861,0.2821,0.3087,0.3087,0.3087,0.3087,0.3086,0.3086,0.1936,0.2089,0.2102,0.2285,0.2328,0.2458,0.251,0.2579,0.2639,0.2801,0.2898,0.2932,0.3003,0.3128,0.3239,0.3253,0.3301,0.3345,0.3356,0.3138,0.3109,0.3082,0.3045,0.3354,0.3354,0.3579,0.3581,0.3583]},{"header":{"parameterUnit":"m.s-1","parameterCategory":1,"la1":30.2991,"la2":30.254,"lo1":-89.0895,"lo2":-89.0444,"dy":0.0017,"dx":0.0017,"nx":28,"ny":28,"refTime":"2024-05-10T09:00:00:Z","depth":0,"parameterNumber":3,"parameterNumberName":"V-component_of_WINDS"},"data":[0,0,0,0,0,0,0,0,0,0,0,0,0,0,0,0,0,0,0,0,0,0,0,0,0,0,0,0,0,0,0,0,0,0,0,0,0,0,0,0,0,0,0,0,0,0,0,0,0,0,0,0,0,0,0,0,0,0,-1.3739,-1.3739,0,-1.3766,-1.3767,-1.3767,-1.3932,-1.3936,-1.394,-1.3943,-1.3963,-1.396,-1.3956,0,0,0,0,0,0,0,0,0,0,0,0,0,-1.3817,-1.3815,-1.3739,-1.3739,-1.3739,-1.3766,-1.3767,-1.3767,-1.3931,-1.3936,-1.3941,-1.3945,-1.3964,-1.396,-1.3956,0,0,0,0,0,0,0,0,0,0,0,0,0,-1.3807,-1.3814,-1.3738,-1.3825,-1.3833,-1.3766,-1.3767,-1.3767,-1.393,-1.3936,-1.3942,-1.3948,-1.3965,-1.396,-1.3956,-1.3806,0,0,-1.3941,-1.3939,0,0,0,0,0,0,0,0,-1.3808,-1.3804,-1.3812,-1.3819,-1.3827,-1.3852,-1.3802,-1.378,-1.3928,-1.3893,-1.3944,-1.3951,-1.392,-1.392,-1.3911,-1.3807,-1.3808,-1.394,-1.3937,-1.3935,-1.3934,0,0,0,0,0,0,0,-1.3808,-1.3804,-1.3749,-1.3811,-1.3821,-1.3858,-1.3864,-1.3798,-1.3872,-1.3896,-1.3908,-1.391,-1.3926,-1.3916,-1.3913,-1.3808,-1.3941,-1.3936,-1.3933,-1.3931,-1.3576,-1.357,0,0,0,0,0,0,-1.3798,-1.3803,-1.3749,-1.375,-1.3832,-1.3852,-1.3858,-1.3838,-1.3874,-1.3885,-1.3905,-1.3917,-1.3921,-1.3918,-1.3914,-1.3737,-1.3935,-1.3931,-1.3928,-1.3583,-1.3575,-1.3568,0,0,0,0,0,0,-1.3799,-1.3792,-1.3747,-1.378,-1.3777,-1.3844,-1.382,-1.3835,-1.3825,-1.388,-1.3893,-1.3881,-1.3926,-1.3921,-1.3831,-1.374,-1.3929,-1.3924,-1.359,-1.358,-1.3571,-1.3384,0,0,0,0,0,0,-1.3801,-1.3791,-1.3737,-1.3778,-1.3775,-1.3666,-1.3815,-1.3831,-1.3818,-1.3835,-1.3862,-1.3872,-1.393,-1.3837,-1.3826,-1.3737,-1.3921,-1.3599,-1.3586,-1.3574,-1.3399,-1.3369,-1.3344,0,0,0,0,0,-1.3803,-1.3683,-1.3734,-1.3726,-1.371,-1.3661,-1.3659,-1.3731,-1.381,-1.3754,-1.3789,-1.3871,-1.3753,-1.3827,-1.3816,-1.3724,-1.3605,-1.3589,-1.3575,-1.3411,-1.3375,-1.3345,0,0,0,0,0,0,-1.3628,-1.369,-1.3747,-1.3637,-1.3643,-1.3689,-1.3621,-1.3691,-1.3672,-1.3688,-1.3776,-1.3781,-1.3676,-1.3692,-1.3773,-1.3578,-1.3693,-1.3675,-1.3571,-1.3538,-1.3511,-1.3507,-1.3917,0,0,0,0,0,-1.3577,-1.3535,-1.3591,-1.3488,-1.3488,-1.3553,-1.3535,-1.359,-1.3598,-1.36,-1.3629,-1.363,-1.3594,-1.3567,-1.3537,-1.3403,-1.3408,-1.3334,-1.3307,-1.3284,-1.3266,-1.3191,-1.3157,-1.3519,-1.3519,-1.352,0,0,-1.347,-1.3499,-1.3467,-1.3453,-1.3464,-1.3414,-1.3554,-1.3497,-1.346,-1.3591,-1.3507,-1.3527,-1.3535,-1.3421,-1.3372,-1.3431,-1.3168,-1.3265,-1.3247,-1.3241,-1.3172,-1.3138,-1.3107,-1.3509,-1.3511,-1.3513,0,0,-1.325,-1.3269,-1.3184,-1.3192,-1.3207,-1.3252,-1.323,-1.3266,-1.3285,-1.3203,-1.3299,-1.3254,-1.319,-1.319,-1.3182,-1.2958,-1.303,-1.2946,-1.2801,-1.2727,-1.2698,-1.2673,-1.2588,-1.2558,-1.2929,-1.2928,-1.2928,0,-1.3114,-1.3047,-1.3131,-1.3066,-1.3055,-1.3174,-1.3085,-1.3088,-1.3091,-1.3078,-1.3145,-1.3065,-1.3079,-1.2964,-1.2909,-1.29,-1.2874,-1.2941,-1.2697,-1.2672,-1.265,-1.257,-1.2538,-1.2918,-1.2919,-1.292,-1.2921,0,-1.2877,-1.2828,-1.2757,-1.2759,-1.274,-1.2664,-1.2732,-1.2702,-1.2758,-1.2794,-1.2705,-1.2726,-1.27,-1.2678,-1.2732,-1.2568,-1.2604,-1.2682,-1.2798,-1.2603,-1.2529,-1.25,-1.2902,-1.2906,-1.2909,-1.2912,0,0,-1.2546,-1.2595,-1.2566,-1.2566,-1.2591,-1.2553,-1.248,-1.2457,-1.2427,-1.2425,-1.2362,-1.2304,-1.2376,-1.2366,-1.242,-1.2356,-1.2171,-1.2442,-1.2443,-1.2386,-1.1986,-1.1923,-1.1887,-1.2221,-1.2215,-1.2211,-1.1983,0,-1.2332,-1.2213,-1.2284,-1.2153,-1.2106,-1.2217,-1.2152,-1.2157,-1.2188,-1.215,-1.2183,-1.2139,-1.224,-1.2233,-1.2175,-1.2206,-1.209,-1.2224,-1.2157,-1.2154,-1.2148,-1.1849,-1.1784,-1.1569,-1.1956,-1.1951,-1.1947,0,-1.2066,-1.2052,-1.1916,-1.1946,-1.1929,-1.187,-1.1852,-1.1816,-1.1823,-1.1849,-1.1836,-1.1906,-1.1832,-1.1949,-1.1844,-1.1933,-1.191,-1.1921,-1.1914,-1.1907,-1.2036,-1.1829,-1.1502,-1.1468,-1.1904,-1.1907,-1.191,0,-1.1832,-1.178,-1.1691,-1.1689,-1.1723,-1.1678,-1.1689,-1.1702,-1.1682,-1.1665,-1.1652,-1.1626,-1.161,-1.1586,-1.1644,-1.1725,-1.1529,-1.1653,-1.1544,-1.1542,-1.1495,-1.1497,-1.1155,-1.1488,-1.1488,-1.1489,-1.149,0,-1.1582,-1.1493,-1.1586,-1.1531,-1.1433,-1.1515,-1.1414,-1.1437,-1.1446,-1.1394,-1.1489,-1.1436,-1.1519,-1.1473,-1.1519,-1.1422,-1.1415,-1.1431,-1.1443,-1.142,-1.1417,-1.1403,-1.1417,-1.148,-1.1482,-1.1484,-1.1485,0,-1.1304,-1.1364,-1.1273,-1.1312,-1.132,-1.1245,-1.1277,-1.1224,-1.1262,-1.1193,-1.1182,-1.1238,-1.119,-1.1247,-1.1202,-1.1232,-1.11,-1.1137,-1.1098,-1.1106,-1.0993,-1.1,-1.0626,-1.0579,-1.0946,-1.0943,-1.094,0,-1.1139,-1.1073,-1.1105,-1.1078,-1.1084,-1.1039,-1.1019,-1.1096,-1.107,-1.1071,-1.1017,-1.0977,-1.0948,-1.0864,-1.0898,-1.0863,-1.0896,-1.0768,-1.0891,-1.0868,-1.0888,-1.0889,-1.088,-1.0741,-1.0736,-1.0733,-1.073,0,-1.0838,-1.087,-1.0839,-1.0816,-1.079,-1.0776,-1.0768,-1.074,-1.0819,-1.0785,-1.0737,-1.0715,-1.0669,-1.0625,-1.06,-1.0608,-1.0678,-1.0691,-1.0663,-1.0637,-1.0615,-1.062,-1.1023,-1.0699,-1.0702,-1.0704,-1.0706,-1.0707,-1.0608,-1.0553,-1.0566,-1.0527,-1.0529,-1.0519,-1.0471,-1.0502,-1.0464,-1.0435,-1.0482,-1.042,-1.0423,-1.0397,-1.0396,-1.0345,-1.04,-1.0361,-1.035,-1.0338,-1.0318,-1.0626,-1.0341,-1.0342,-1.0343,-1.0344,-1.0345,0,-1.0308,-1.0321,-1.0285,-1.0271,-1.0239,-1.0314,-1.0308,-1.0274,-1.022,-1.0219,-1.0189,-1.0131,-1.0088,-1.0119,-1.0082,-1.0035,-1.0066,-1.0022,-1.0024,-1.0023,-1.0274,-1.03,-0.9997,-0.9997,-0.9997,-0.9997,-0.9997,-0.9997,-1.0147,-1.0057,-1.0089,-0.9998,-1.0012,-0.9954,-0.9944,-0.9933,-0.9932,-0.9864,-0.983,-0.9851,-0.986,-0.9824,-0.9786,-0.9796,-0.9776,-0.9718,-0.9738,-0.9972,-1.0006,-1.0038,-1.0063,-0.9714,-0.9714,-0.9491,-0.9489,-0.9487]}]]